Terug naar catalogus

STARLINK-35638

ActiefCommunicatieVLEO
NORAD 66169·PAYLOAD·🇺🇸 United States

Gelanceerd Oct 25, 2025 vanaf Cape Canaveral Space Force Station

Loading…

Volgende Passages (komende 24 uur)

TLE

VersSource: CelesTrak SupGP

Epoch: Sep 14, 2026, 15:08 UTC

1 66169C 25240Z   26257.63104167 -.00022251  00000+0 -65760-3 0  2578
2 66169  53.1580 263.0141 0001304  82.8804  34.1030 15.34392677    16

Volg STARLINK-35638 in realtime met AllMySat

Download on the App Store